Weather History for Houston, TX

Change the Weather History Date:

Monday, September 16, 2013

  Actual Average Record
Temperature  
Mean Temperature 83 °F 80 °F  
Max Temperature 93 °F 90 °F 98 °F (1995)
Min Temperature 73 °F 70 °F 53 °F (1979)
Degree Days  
Heating Degree Days 0 0  
Month to date heating degree days 0 0  
Since 1 July heating degree days 0 0  
Cooling Degree Days 18 15  
Month to date cooling degree days 310 266  
Year to date cooling degree days 2703 2648  
Growing Degree Days 36 (Base 50)    
Moisture  
Dew Point 74 °F    
Average Humidity 78    
Maximum Humidity 100    
Minimum Humidity 56    
Precipitation  
Precipitation 0.00 in 0.13 in 1.72 in (1941)
Month to date precipitation 0.56 2.33  
Year to date precipitation 21.76 34.20  
Sea Level Pressure  
Sea Level Pressure 30.00 in    
Wind  
Wind Speed 7 mph (East)    
Max Wind Speed 17 mph    
Max Gust Speed 22 mph    
Visibility 10 miles    
Events Thunderstorm    
T = Trace of Precipitation, MM = Missing Value Source: NWS Daily Summary

Daily Weather History Graph

Daily Weather History Graph

Search for Another Location

Airport:

Trip Planner

Search our weather history database for the weather conditions in past years. The results will help you decide how hot, cold, wet, or windy it might be!

Date:

Astronomy

Sep. 16, 2013 Rise Set
Actual Time 7:06 AM CDT 7:24 PM CDT
Civil Twilight 6:42 AM CDT 7:48 PM CDT
Nautical Twilight 6:14 AM CDT 8:16 PM CDT
Astronomical Twilight 5:46 AM CDT 8:44 PM CDT
Moon 5:26 PM CDT (9/16) 4:04 AM CDT (9/16)
Length of Visible Light 13h 05m
Length of Day
12h 18m
Waxing Gibbous, 90% of the Moon is Illuminated
Sep 16
Waxing Gibbous
Sep 19
Full
Sep 26
Last Quarter
Oct 4
New
Oct 11
First Quarter

Hourly Weather History & Observations

Time (CDT) Temp. Heat Index Dew Point Humidity Pressure Visibility Wind Dir Wind Speed Gust Speed Precip Events Conditions
12:53 AM 82.0 °F 87.9 °F 73.9 °F 76% 30.00 in 10.0 mi ESE 5.8 mph - N/A   Mostly Cloudy
1:53 AM 82.0 °F 87.9 °F 73.9 °F 76% 30.00 in 10.0 mi ESE 6.9 mph - N/A   Mostly Cloudy
2:53 AM 81.0 °F 86.2 °F 73.9 °F 79% 29.99 in 10.0 mi ESE 5.8 mph - N/A   Mostly Cloudy
3:53 AM 81.0 °F 86.2 °F 73.9 °F 79% 29.98 in 10.0 mi ESE 3.5 mph - N/A   Scattered Clouds
4:53 AM 80.1 °F 84.5 °F 73.9 °F 81% 29.98 in 10.0 mi East 3.5 mph - N/A   Scattered Clouds
5:53 AM 80.1 °F 84.5 °F 73.9 °F 81% 29.98 in 10.0 mi East 5.8 mph - N/A   Scattered Clouds
6:53 AM 81.0 °F 86.2 °F 73.9 °F 79% 29.99 in 10.0 mi East 4.6 mph - N/A   Mostly Cloudy
7:53 AM 81.0 °F 86.7 °F 75.0 °F 82% 30.01 in 10.0 mi NE 5.8 mph - N/A   Mostly Cloudy
8:53 AM 82.0 °F 88.6 °F 75.0 °F 79% 30.02 in 10.0 mi NNE 8.1 mph - N/A   Overcast
9:53 AM 84.0 °F 92.6 °F 75.9 °F 76% 30.05 in 10.0 mi East 10.4 mph - N/A   Overcast
10:53 AM 86.0 °F 95.1 °F 75.0 °F 70% 30.04 in 10.0 mi East 8.1 mph - N/A   Overcast
11:53 AM 89.1 °F 99.1 °F 75.0 °F 63% 30.04 in 10.0 mi ENE 9.2 mph - N/A   Overcast
12:53 PM 91.0 °F 99.3 °F 73.0 °F 55% 30.03 in 10.0 mi ESE 10.4 mph - N/A   Mostly Cloudy
1:53 PM 91.9 °F 100.7 °F 73.0 °F 54% 30.01 in 10.0 mi ESE 12.7 mph - N/A   Mostly Cloudy
2:53 PM 91.9 °F 101.3 °F 73.9 °F 55% 29.99 in 10.0 mi East 10.4 mph - N/A   Mostly Cloudy
3:29 PM 80.6 °F 84.6 °F 71.6 °F 74% 29.98 in 10.0 mi NE 21.9 mph 34.5 mph N/A Thunderstorm Thunderstorm
3:53 PM 80.1 °F 83.2 °F 70.0 °F 71% 30.00 in 10.0 mi North 11.5 mph - N/A   Mostly Cloudy
4:53 PM 89.1 °F 96.0 °F 72.0 °F 57% 29.98 in 10.0 mi East 10.4 mph - N/A   Mostly Cloudy
5:53 PM 89.1 °F 96.0 °F 72.0 °F 57% 29.98 in 10.0 mi ESE 11.5 mph 18.4 mph N/A   Mostly Cloudy
6:53 PM 86.0 °F 90.7 °F 70.0 °F 59% 29.98 in 10.0 mi ESE 9.2 mph - N/A   Mostly Cloudy
7:53 PM 84.0 °F 90.2 °F 73.0 °F 69% 29.99 in 10.0 mi ESE 8.1 mph - N/A   Mostly Cloudy
8:53 PM 82.9 °F 90.2 °F 75.0 °F 77% 30.01 in 10.0 mi SE 8.1 mph - N/A   Mostly Cloudy
9:53 PM 82.0 °F 88.6 °F 75.0 °F 79% 30.01 in 10.0 mi SE 4.6 mph - N/A   Mostly Cloudy
10:53 PM 82.0 °F 87.9 °F 73.9 °F 76% 30.02 in 10.0 mi ESE 3.5 mph - N/A   Mostly Cloudy
11:53 PM 81.0 °F 86.2 °F 73.9 °F 79% 30.02 in 10.0 mi Calm Calm - N/A   Mostly Cloudy